This is the latest recevied weather packets stored in our database for station/object KC5TIL. If no packets are shown the sender has not sent any weather packets the latest 1 day(s).
| Time | Temp. | Humidity | Pressure | Rain* | Wind** | Luminosity | Snow |
|---|---|---|---|---|---|---|---|
| 1777983471 | 21.11° C | 89% | 1005.8 hPa | 0 mm | 0.45 m/s, 111° | 26 W/m² | - |
| 1777983168 | 21.11° C | 89% | 1005.8 hPa | 0 mm | 0.45 m/s, 179° | 22 W/m² | - |
| 1777982864 | 21.11° C | 89% | 1005.4 hPa | 0 mm | 0.89 m/s, 191° | 17 W/m² | - |
| 1777982561 | 21.11° C | 89% | 1005.4 hPa | 0 mm | 0.45 m/s, 188° | 12 W/m² | - |
| 1777982259 | 21.11° C | 90% | 1005.5 hPa | 0 mm | 0.89 m/s, 150° | 9 W/m² | - |
| 1777981957 | 21.11° C | 90% | 1005.5 hPa | 0 mm | 1.34 m/s, 187° | 6 W/m² | - |
| 1777981654 | 21.11° C | 89% | 1005.6 hPa | 0 mm | 0.45 m/s, 212° | 2 W/m² | - |
| 1777981359 | 21.11° C | 90% | 1005.6 hPa | 0 mm | 0.89 m/s, 162° | 0 W/m² | - |
| 1777981047 | 21.11° C | 90% | 1005.3 hPa | 0 mm | 1.34 m/s, 119° | 0 W/m² | - |
| 1777980743 | 21.11° C | 90% | 1005.3 hPa | 0 mm | 0.45 m/s, 212° | 0 W/m² | - |
| 1777980439 | 21.11° C | 90% | 1005.3 hPa | 0 mm | 0.45 m/s, 177° | 0 W/m² | - |
| 1777980137 | 21.11° C | 90% | 1005.4 hPa | 0 mm | 0 m/s | 0 W/m² | - |
| 1777979832 | 21.11° C | 89% | 1005.3 hPa | 0 mm | 0.89 m/s, 159° | 0 W/m² | - |
| 1777979528 | 21.11° C | 89% | 1005.5 hPa | 0 mm | 0.89 m/s, 115° | 0 W/m² | - |
| 1777979224 | 21.11° C | 89% | 1005.4 hPa | 0 mm | 0.89 m/s, 198° | 0 W/m² | - |
| 1777978922 | 21.11° C | 89% | 1005.3 hPa | 0 mm | 0.45 m/s, 196° | 0 W/m² | - |
| 1777978618 | 21.11° C | 89% | 1005.3 hPa | 0 mm | 0.89 m/s, 150° | 0 W/m² | - |
| 1777978314 | 21.11° C | 89% | 1005.1 hPa | 0 mm | 0 m/s | 0 W/m² | - |
| 1777978010 | 21.11° C | 89% | 1005 hPa | 0 mm | 0.45 m/s, 163° | 0 W/m² | - |
| 1777977708 | 21.11° C | 89% | 1004.9 hPa | 0 mm | 0.45 m/s, 155° | 0 W/m² | - |
| 1777977404 | 21.11° C | 89% | 1005.1 hPa | 0 mm | 0.45 m/s, 182° | 0 W/m² | - |
| 1777977102 | 21.11° C | 89% | 1005.2 hPa | 0 mm | 0.45 m/s, 210° | 0 W/m² | - |
| 1777976799 | 21.11° C | 88% | 1005.1 hPa | 0 mm | 0.89 m/s, 178° | 0 W/m² | - |
| 1777976497 | 21.11° C | 88% | 1005 hPa | 0 mm | 0.45 m/s, 137° | 0 W/m² | - |
| 1777976196 | 21.67° C | 88% | 1005 hPa | 0 mm | 0.89 m/s, 171° | 0 W/m² | - |
* Rain latest hour (hover to see other rain measurements)
** Current wind speed in m/s (hover to see current wind gust speed)